GW6653 Weather Reports


time (UTC)temp
F
wind
direction
speed
knots
gust
knots
rain 1hr
in
rain 24hr
in
rain mn
in
humidity
%
barometer
mb
20260502170229 56 321 0.0 0.0 0.00 0.00 0.00 54 1008.5
20260502164230 56 315 0.0 0.0 0.00 0.00 0.00 54 1008.5
20260502163730 55 295 0.0 0.0 0.00 0.00 0.00 55 1008.5
20260502163230 55 343 0.0 0.0 0.00 0.00 0.00 55 1008.5
20260502162731 55 349 0.0 0.0 0.00 0.00 0.00 54 1008.5
20260502162229 55 301 0.0 0.0 0.00 0.00 0.00 55 1008.5
20260502161729 55 304 0.9 0.9 0.00 0.00 0.00 56 1008.5
20260502161229 55 303 0.0 1.7 0.00 0.00 0.00 56 1008.5
20260502160729 55 308 0.0 0.0 0.00 0.00 0.00 58 1008.5
20260502160230 55 324 0.0 0.0 0.00 0.00 0.00 56 1008.5
20260502152230 55 156 1.7 2.6 0.00 0.00 0.00 59 1009.1
20260502151730 55 275 0.0 0.0 0.00 0.00 0.00 58 1008.8
20260502151229 55 327 0.0 0.0 0.00 0.00 0.00 57 1008.5
20260502150729 55 305 0.0 1.7 0.00 0.00 0.00 57 1008.5
20260502150231 55 342 0.0 0.9 0.00 0.00 0.00 59 1008.5
20260502130730 54 338 0.0 0.0 0.00 0.00 0.00 67 1008.1
20260502130231 54 332 0.0 0.9 0.00 0.00 0.00 68 1008.1
20260502123729 54 1 0.0 2.6 0.00 0.00 0.00 71 1007.8
20260502123230 54 304 0.0 0.0 0.00 0.00 0.00 72 1007.8
20260502122729 53 218 0.0 0.0 0.00 0.00 0.00 71 1007.8
20260502122229 53 332 0.0 0.0 0.00 0.00 0.00 72 1007.8
20260502121730 53 351 0.0 2.6 0.00 0.00 0.00 73 1007.5
20260502121229 53 297 0.0 0.0 0.00 0.00 0.00 74 1007.5
20260502120729 53 282 0.0 0.9 0.00 0.00 0.00 74 1007.5
20260502120229 53 280 0.0 0.0 0.00 0.00 0.00 76 1007.5
20260502115729 53 327 0.0 3.5 0.00 0.00 0.00 77 1007.5
20260502115230 52 342 0.0 0.9 0.00 0.00 0.00 78 1007.5
20260502114729 52 286 0.0 0.0 0.00 0.00 0.00 80 1007.5
20260502114231 52 336 0.0 0.0 0.00 0.00 0.00 82 1007.5
20260502113730 51 302 0.0 0.0 0.00 0.00 0.00 85 1007.5
20260502113229 51 328 0.0 0.0 0.00 0.00 0.00 87 1007.5
20260502112729 51 307 0.0 0.0 0.00 0.00 0.00 88 1007.5
20260502112230 51 278 0.0 0.0 0.00 0.00 0.00 89 1007.5
20260502111730 51 304 0.0 0.0 0.00 0.00 0.00 89 1007.5
20260502111230 51 312 0.0 0.0 0.00 0.00 0.00 89 1007.5
20260502110729 51 315 0.0 0.0 0.00 0.00 0.00 90 1007.5
20260502110231 51 310 0.0 0.0 0.00 0.00 0.00 90 1007.5
20260502105730 50 303 0.0 0.0 0.00 0.00 0.00 90 1007.8
20260502105230 50 308 0.0 0.0 0.00 0.00 0.00 90 1007.5
20260502104729 50 305 0.0 0.0 0.00 0.00 0.00 90 1007.5
20260502104229 50 301 0.0 0.0 0.00 0.00 0.00 90 1007.5
20260502103732 50 296 0.0 0.0 0.00 0.00 0.00 90 1007.5
20260502103229 50 297 0.0 0.0 0.00 0.00 0.00 90 1007.1
20260502102730 50 304 0.0 0.0 0.00 0.00 0.00 90 1007.1
20260502102229 50 307 0.0 0.0 0.00 0.00 0.00 90 1007.1
20260502101730 50 302 0.0 0.0 0.00 0.00 0.00 90 1007.1
20260502101229 50 303 0.0 0.0 0.00 0.00 0.00 90 1007.1
20260502100729 50 296 0.0 0.0 0.00 0.00 0.00 90 1007.1
20260502100229 50 296 0.0 0.0 0.00 0.00 0.00 90 1007.1
20260502091230 49 300 0.0 0.0 0.00 0.00 0.00 89 1006.8
20260502090729 50 291 0.0 0.0 0.00 0.00 0.00 88 1006.8
20260502090231 50 296 0.0 0.0 0.00 0.00 0.00 88 1006.8
20260502071229 50 299 0.0 0.0 0.00 0.00 0.00 84 1006.1
20260502070729 51 299 0.0 0.0 0.00 0.00 0.00 83 1006.1
20260502070231 51 299 0.0 0.0 0.00 0.00 0.00 83 1006.1
20260502065729 51 298 0.0 0.0 0.00 0.00 0.00 83 1006.1
20260502065229 51 305 0.0 0.0 0.00 0.00 0.00 82 1006.1
20260502064730 51 298 0.0 0.0 0.00 0.00 0.00 82 1006.1
20260502064229 51 296 0.0 0.0 0.00 0.00 0.00 82 1006.1
20260502063729 52 296 0.0 0.0 0.00 0.00 0.00 81 1006.1
20260502063229 52 301 0.0 0.0 0.00 0.00 0.00 81 1006.1
20260502062729 52 284 0.0 0.0 0.00 0.00 0.00 81 1006.4
20260502062229 52 306 0.0 0.0 0.00 0.00 0.00 81 1006.4
20260502061729 52 307 0.0 0.0 0.00 0.00 0.00 81 1006.4
20260502061229 52 311 0.0 0.0 0.00 0.00 0.00 80 1006.4
20260502060729 52 303 0.0 0.0 0.00 0.00 0.00 80 1006.4
20260502060229 52 315 0.0 0.0 0.00 0.00 0.00 80 1006.1
20260502055729 52 317 0.0 0.0 0.00 0.00 0.00 80 1006.1
20260502055231 53 309 0.0 0.0 0.00 0.00 0.00 79 1006.1
20260502054729 53 316 0.0 0.0 0.00 0.00 0.00 79 1006.4
20260502054229 53 318 0.0 0.0 0.00 0.00 0.00 79 1006.4
20260502053730 53 310 0.0 0.0 0.00 0.00 0.00 79 1006.4
20260502053230 53 298 0.0 0.0 0.00 0.00 0.00 79 1006.4
20260502052729 53 306 0.0 0.0 0.00 0.00 0.00 78 1006.4
20260502052229 53 305 0.0 0.0 0.00 0.00 0.00 78 1006.4
20260502051729 53 310 0.0 0.0 0.00 0.00 0.00 78 1006.4
20260502051229 53 317 0.0 0.0 0.00 0.00 0.00 78 1006.4
20260502050729 53 301 0.0 0.0 0.00 0.00 0.00 78 1006.8
20260502050229 53 306 0.0 0.0 0.00 0.00 0.00 77 1006.8
20260502045729 53 318 0.0 0.0 0.00 0.00 0.00 77 1006.8
20260502045230 53 316 0.0 0.0 0.00 0.00 0.00 77 1006.8
20260502044729 53 312 0.0 0.0 0.00 0.00 0.00 77 1006.8
20260502044229 53 305 0.0 0.0 0.00 0.00 0.00 77 1006.8
20260502043731 53 314 0.0 0.0 0.00 0.00 0.00 76 1007.1
20260502043230 54 307 0.0 0.0 0.00 0.00 0.00 76 1007.1
20260502042730 54 308 0.0 0.0 0.00 0.00 0.00 76 1007.1
20260502042230 54 314 0.0 0.0 0.00 0.00 0.00 76 1007.1
20260502041729 54 283 0.0 0.0 0.00 0.00 0.00 75 1007.1
20260502041229 54 306 0.0 0.0 0.00 0.00 0.00 75 1007.1
20260502040729 54 307 0.0 0.0 0.00 0.00 0.00 75 1007.1
20260502040229 54 306 0.0 0.0 0.00 0.00 0.00 75 1007.1
20260502035729 54 308 0.0 0.0 0.00 0.00 0.00 74 1007.1
20260502035229 54 324 0.0 0.0 0.00 0.00 0.00 74 1007.1
20260502034729 55 316 0.0 0.0 0.00 0.00 0.00 74 1007.1
20260502034230 55 320 0.0 0.0 0.00 0.00 0.00 74 1007.1
20260502033729 55 357 0.0 0.0 0.00 0.00 0.00 74 1006.8
20260502033229 55 317 0.0 0.0 0.00 0.00 0.00 73 1006.8
20260502032729 55 322 0.0 0.0 0.00 0.00 0.00 73 1006.8
20260502032229 55 299 0.0 0.0 0.00 0.00 0.00 73 1006.8
20260502031730 55 320 0.0 0.0 0.00 0.00 0.00 72 1006.4
20260502031230 55 303 0.0 0.0 0.00 0.00 0.00 72 1006.4
20260502030730 55 309 0.0 0.0 0.00 0.00 0.00 72 1006.4
20260502030229 56 273 0.0 0.0 0.00 0.00 0.00 71 1006.4
20260502025729 56 306 0.0 0.0 0.00 0.00 0.00 71 1006.4
20260502025229 56 303 0.0 0.0 0.00 0.00 0.00 71 1006.4
20260502024730 56 314 0.0 0.0 0.00 0.00 0.00 71 1006.1
20260502024229 56 312 0.0 0.0 0.00 0.00 0.00 71 1006.4
20260502023730 56 261 0.0 0.0 0.00 0.00 0.00 70 1006.4
20260502023229 56 309 0.0 0.0 0.00 0.00 0.00 70 1006.4
20260502022733 56 352 0.0 0.0 0.00 0.00 0.00 70 1006.4
20260502022230 56 336 0.0 0.0 0.00 0.00 0.00 70 1006.8
20260502021729 57 305 0.0 0.0 0.00 0.00 0.00 69 1006.8
20260502021230 57 294 0.0 0.0 0.00 0.00 0.00 69 1006.8
20260502020729 57 298 0.0 0.0 0.00 0.00 0.00 69 1006.8
20260502020229 57 313 0.0 0.0 0.00 0.00 0.00 69 1006.8
20260502015731 57 327 0.0 0.0 0.00 0.00 0.00 68 1006.8
20260502015229 57 301 0.0 0.0 0.00 0.00 0.00 68 1006.4
20260502014729 57 215 0.0 0.9 0.00 0.00 0.00 68 1006.4
20260502014230 57 95 0.0 0.9 0.00 0.00 0.00 67 1006.4
20260502013729 57 294 0.0 0.9 0.00 0.00 0.00 67 1006.4
20260502013230 56 324 0.0 0.0 0.00 0.00 0.00 67 1006.4
20260502012729 57 313 0.0 0.0 0.00 0.00 0.00 66 1006.1
20260502012229 57 303 0.0 0.0 0.00 0.00 0.00 66 1006.1
20260502011730 57 301 0.0 0.0 0.00 0.00 0.00 65 1006.1
20260502011229 57 297 0.0 0.0 0.00 0.00 0.00 65 1006.1
20260502010730 57 307 0.0 0.0 0.00 0.00 0.00 64 1006.1
20260502010230 57 301 0.0 0.0 0.00 0.00 0.00 63 1005.8
20260502005730 58 310 0.0 0.0 0.00 0.00 0.00 63 1005.8
20260502005229 58 311 0.0 0.0 0.00 0.00 0.00 62 1005.8
20260502004729 58 301 0.0 0.0 0.00 0.00 0.00 61 1005.8
20260502004230 58 299 0.0 0.0 0.00 0.00 0.00 60 1005.4
20260502003729 59 312 0.0 0.0 0.00 0.00 0.00 59 1005.4
20260502003230 59 307 0.0 0.0 0.00 0.00 0.00 58 1005.4
20260502002730 59 306 0.0 0.0 0.00 0.00 0.00 58 1005.4
20260502002229 60 300 0.0 0.0 0.00 0.00 0.00 56 1005.4
20260502001729 60 305 0.0 0.0 0.00 0.00 0.00 56 1005.1
20260502001229 60 296 0.0 0.0 0.00 0.00 0.00 55 1005.4
20260502000729 61 305 0.0 0.0 0.00 0.00 0.00 54 1005.4
20260502000230 61 312 0.0 0.0 0.00 0.00 0.00 53 1005.4
20260501235730 61 289 0.0 0.9 0.00 0.00 0.00 53 1005.4
20260501235229 62 9 0.0 0.0 0.00 0.00 0.00 51 1005.4
20260501234239 62 341 0.0 0.0 0.00 0.00 0.00 50 1005.1
20260501233730 63 301 0.0 0.0 0.00 0.00 0.00 49 1005.1
20260501233229 63 313 0.0 0.0 0.00 0.00 0.00 50 1005.1
20260501232731 63 321 0.0 0.0 0.00 0.00 0.00 47 1005.1
20260501232230 64 308 0.0 0.0 0.00 0.00 0.00 50 1005.1
20260501231729 64 314 0.0 0.0 0.00 0.00 0.00 48 1005.1
20260501231230 64 303 0.0 0.0 0.00 0.00 0.00 46 1005.1
20260501230730 64 308 0.0 0.0 0.00 0.00 0.00 46 1005.1
20260501230230 65 313 0.0 0.0 0.00 0.00 0.00 46 1005.1
20260501225729 65 106 1.7 1.7 0.00 0.00 0.00 46 1005.1
20260501225229 65 332 0.0 0.0 0.00 0.00 0.00 47 1005.1
20260501224729 65 331 0.0 3.5 0.00 0.00 0.00 46 1005.1
20260501224229 65 303 0.0 1.7 0.00 0.00 0.00 48 1005.4
20260501223729 65 334 0.0 0.0 0.00 0.00 0.00 47 1005.1
20260501223229 65 315 0.0 0.0 0.00 0.00 0.00 47 1005.4
20260501222730 66 321 0.0 0.0 0.00 0.00 0.00 47 1005.4
20260501222229 66 300 0.0 1.7 0.00 0.00 0.00 44 1005.4
20260501221731 66 352 0.0 0.9 0.00 0.00 0.00 43 1005.4
20260501221229 66 317 0.0 0.0 0.00 0.00 0.00 43 1005.4
20260501220730 66 283 1.7 1.7 0.00 0.00 0.00 42 1005.4
20260501220229 66 82 1.7 1.7 0.00 0.00 0.00 42 1005.4
20260501215730 66 302 0.0 4.3 0.00 0.00 0.00 41 1005.4
20260501215230 66 276 0.0 0.0 0.00 0.00 0.00 41 1005.4
20260501214732 66 318 0.0 0.0 0.00 0.00 0.00 41 1005.4
20260501214229 66 0 0.0 2.6 0.00 0.00 0.00 41 1005.4
20260501213729 66 276 0.0 1.7 0.00 0.00 0.00 41 1005.4
20260501213230 66 278 0.0 0.9 0.00 0.00 0.00 41 1005.4
20260501212730 66 320 0.9 0.9 0.00 0.00 0.00 41 1005.4
20260501212229 67 20 1.7 2.6 0.00 0.00 0.00 41 1005.4
20260501211729 67 344 0.0 1.7 0.00 0.00 0.00 41 1005.4
20260501211229 67 275 0.0 0.9 0.00 0.00 0.00 42 1005.4
20260501210730 67 304 0.0 0.9 0.00 0.00 0.00 41 1005.4
20260501210230 67 310 0.0 0.0 0.00 0.00 0.00 41 1005.4
20260501205730 67 312 0.0 0.9 0.00 0.00 0.00 39 1005.4
20260501205229 67 52 0.0 2.6 0.00 0.00 0.00 39 1005.4
20260501204731 67 239 0.0 0.0 0.00 0.00 0.00 39 1005.4
20260501204236 67 308 0.0 0.0 0.00 0.00 0.00 37 1005.4
20260501203730 68 289 1.7 1.7 0.00 0.00 0.00 36 1005.8
20260501203231 68 310 0.9 1.7 0.00 0.00 0.00 42 1005.8
20260501202730 68 310 0.0 3.5 0.00 0.00 0.00 42 1005.8
20260501202229 67 12 0.9 0.9 0.00 0.00 0.00 39 1005.8
20260501201729 67 313 0.0 0.0 0.00 0.00 0.00 39 1006.1
20260501201230 67 329 0.0 3.5 0.00 0.00 0.00 39 1006.1
20260501200731 67 157 0.0 2.6 0.00 0.00 0.00 39 1006.1
20260501200231 67 14 2.6 4.3 0.00 0.00 0.00 38 1006.1
20260501195729 67 305 0.0 3.5 0.00 0.00 0.00 39 1006.4
20260501195229 67 311 0.0 0.0 0.00 0.00 0.00 39 1006.4
20260501194729 67 324 0.0 0.9 0.00 0.00 0.00 40 1006.4
20260501194230 67 9 0.0 0.9 0.00 0.00 0.00 38 1006.4
20260501193729 67 348 0.0 1.7 0.00 0.00 0.00 37 1006.8
20260501193229 67 346 0.0 5.2 0.00 0.00 0.00 38 1006.8
20260501192729 67 49 0.9 5.2 0.00 0.00 0.00 37 1006.8
20260501192229 67 297 0.0 1.7 0.00 0.00 0.00 39 1006.8
20260501191731 67 247 0.0 2.6 0.00 0.00 0.00 38 1007.1
20260501191229 68 104 3.5 3.5 0.00 0.00 0.00 40 1007.1
20260501190729 68 317 0.0 3.5 0.00 0.00 0.00 43 1007.1
20260501185837 68 196 1.7 2.6 0.00 0.00 0.00 37 1007.5
20260501184940 67 282 0.9 2.6 0.00 0.00 0.00 41 1007.5
20260501184231 67 103 0.0 0.9 0.00 0.00 0.00 38 1007.8
20260501183729 68 174 0.0 5.2 0.00 0.00 0.00 38 1007.8
20260501183229 68 344 0.0 0.0 0.00 0.00 0.00 39 1007.8
20260501182729 67 358 0.0 2.6 0.00 0.00 0.00 41 1007.8
20260501182230 67 334 0.0 3.5 0.00 0.00 0.00 37 1007.8
20260501181731 68 242 0.9 0.9 0.00 0.00 0.00 40 1008.1
20260501181230 68 22 0.9 3.5 0.00 0.00 0.00 39 1008.1
20260501180729 68 167 0.9 1.7 0.00 0.00 0.00 36 1008.1
20260501180229 68 124 0.9 2.6 0.00 0.00 0.00 35 1008.5
20260501175730 68 107 0.0 3.5 0.00 0.00 0.00 39 1008.1
20260501175230 70 147 0.0 2.6 0.00 0.00 0.00 44 1008.1
20260501174729 68 309 0.0 0.0 0.00 0.00 0.00 41 1008.5
20260501174230 68 258 0.0 2.6 0.00 0.00 0.00 39 1008.5
20260501173730 68 359 0.0 2.6 0.00 0.00 0.00 36 1008.5
20260501173230 66 277 0.0 0.9 0.00 0.00 0.00 40 1008.5
20260501172731 65 226 0.0 0.0 0.00 0.00 0.00 38 1008.5